DW1347 Weather Reports


Display with metric or nautical units.
time (UTC)temp
F
wind
direction
speed
MPH
gust
MPH
rain 1hr
in
rain 24hr
in
rain mn
in
humidity
%
barometer
mb
20260505075313 38 222 0.0 0.0 0.00 0.00 0.00 99 1018.3
20260505074810 38 219 0.0 0.0 0.00 0.00 0.00 99 1018.0
20260505074307 38 231 0.0 0.0 0.00 0.00 0.00 99 1018.2
20260505073805 38 225 0.0 0.0 0.00 0.00 0.00 99 1018.3
20260505073303 38 224 0.0 0.0 0.00 0.00 0.00 99 1018.4
20260505072759 38 227 0.0 0.0 0.00 0.00 0.00 99 1018.3
20260505072255 38 226 0.0 0.0 0.00 0.00 0.00 99 1018.8
20260505071751 38 224 0.0 0.0 0.00 0.00 0.00 99 1018.5
20260505071248 38 219 0.0 0.0 0.00 0.00 0.00 99 1018.5
20260505070745 38 231 0.0 0.0 0.00 0.00 0.00 99 1018.5
20260505070242 38 269 0.0 1.0 0.00 0.00 0.00 99 1018.7
20260505065738 38 239 0.0 0.0 0.00 0.00 0.00 99 1018.7
20260505065235 37 228 0.0 0.0 0.00 0.00 0.00 99 1018.8
20260505064732 37 220 0.0 0.0 0.00 0.00 0.00 99 1018.7
20260505064229 37 227 0.0 0.0 0.00 0.00 0.00 99 1018.9
20260505063726 37 219 0.0 0.0 0.00 0.00 0.00 99 1018.8
20260505063222 37 202 0.0 0.0 0.00 0.00 0.00 99 1018.5
20260505062719 37 207 0.0 0.0 0.00 0.00 0.00 99 1018.4
20260505062217 37 214 0.0 0.0 0.00 0.00 0.00 99 1018.5
20260505061713 38 223 0.0 0.0 0.00 0.00 0.00 99 1018.5
20260505061212 37 170 2.0 2.0 0.00 0.00 0.00 99 1018.4
20260505060708 37 214 0.0 0.0 0.00 0.00 0.00 99 1018.2
20260505060205 37 225 0.0 0.0 0.00 0.00 0.00 99 1018.5
20260505055700 37 218 0.0 0.0 0.00 0.39 0.39 99 1018.3
20260505055158 37 225 0.0 0.0 0.00 0.39 0.39 99 1018.5
20260505054655 38 224 0.0 0.0 0.00 0.39 0.39 99 1018.9
20260505054153 37 208 0.0 1.0 0.00 0.39 0.39 99 1018.8
20260505053650 37 214 0.0 0.0 0.00 0.39 0.39 99 1019.0
20260505053146 37 222 0.0 0.0 0.00 0.39 0.39 99 1018.7
20260505052643 37 225 0.0 0.0 0.00 0.39 0.39 99 1018.8
20260505052141 37 203 0.0 0.0 0.00 0.39 0.39 99 1018.7
20260505051637 37 224 0.0 0.0 0.00 0.39 0.39 99 1018.8
20260505051136 37 222 0.0 0.0 0.00 0.39 0.39 99 1018.8
20260505050633 38 209 0.0 0.0 0.00 0.39 0.39 99 1018.8
20260505050132 38 186 1.0 1.0 0.00 0.39 0.39 99 1019.2
20260505041601 38 223 0.0 0.0 0.00 0.39 0.39 99 1019.2
20260505041059 39 297 1.0 1.0 0.05 0.39 0.39 99 1019.3
20260505040555 39 250 0.0 1.0 0.17 0.39 0.39 99 1019.4
20260505040053 39 223 3.0 3.0 0.31 0.38 0.38 99 1019.6
20260505035549 39 204 2.0 2.0 0.31 0.36 0.36 99 1019.6
20260505035046 40 191 1.0 2.0 0.19 0.34 0.34 99 1019.8
20260505034542 39 231 0.0 0.0 0.19 0.32 0.32 99 1019.7
20260505034039 39 214 0.0 0.0 0.19 0.30 0.30 99 1019.7
20260505033536 40 221 0.0 0.0 0.35 0.29 0.29 99 1019.8
20260505033034 40 213 0.0 0.0 0.24 0.26 0.26 99 1019.6
20260505032531 41 210 0.0 0.0 0.12 0.23 0.23 99 1019.9
20260505032028 41 220 0.0 0.0 0.12 0.22 0.22 99 1019.7
20260505031525 41 222 0.0 0.0 0.07 0.21 0.21 99 1019.8
20260505031021 40 225 0.0 0.0 0.12 0.20 0.20 99 1019.4
20260505030518 41 248 0.0 0.0 0.17 0.20 0.20 99 1019.4
20260505030015 41 231 0.0 0.0 0.19 0.19 0.19 99 1018.9
20260505025511 41 218 0.0 1.0 0.19 0.17 0.17 99 1018.9
20260505025010 41 216 0.0 0.0 0.19 0.16 0.16 99 1019.0
20260505024506 41 201 1.0 1.0 0.07 0.14 0.14 99 1019.0
20260505024003 41 221 0.0 1.0 0.00 0.13 0.13 99 1018.9
20260505023500 41 190 1.0 2.0 0.00 0.13 0.13 99 1018.5
20260505022958 41 220 0.0 1.0 0.00 0.13 0.13 99 1018.8
20260505022455 41 219 0.0 0.0 0.00 0.13 0.13 99 1018.5
20260505021952 41 232 0.0 0.0 0.00 0.13 0.13 99 1018.3
20260505021449 41 220 0.0 0.0 0.00 0.13 0.13 99 1018.2
20260505020944 41 226 0.0 0.0 0.00 0.13 0.13 99 1018.4
20260505020439 41 219 0.0 0.0 0.00 0.13 0.13 99 1017.9
20260505015937 41 157 2.0 2.0 0.00 0.13 0.13 99 1017.9
20260505015434 41 199 1.0 1.0 0.00 0.13 0.13 99 1018.2
20260505014931 41 225 0.0 0.0 0.00 0.13 0.13 99 1018.2
20260505014428 42 224 0.0 1.0 0.00 0.13 0.13 99 1017.8
20260505013925 42 186 2.0 2.0 0.00 0.13 0.13 99 1017.9
20260505013422 42 249 1.0 1.0 0.00 0.13 0.13 99 1017.7
20260505012920 42 225 0.0 0.0 0.00 0.13 0.13 99 1017.7
20260505012418 42 205 1.0 1.0 0.00 0.13 0.13 99 1017.9
20260505011914 42 204 1.0 1.0 0.00 0.13 0.13 99 1018.2
20260505011410 42 202 1.0 1.0 0.00 0.13 0.13 99 1018.3
20260505010907 42 224 0.0 0.0 0.00 0.13 0.13 99 1018.2
20260505010403 42 225 0.0 0.0 0.00 0.13 0.13 99 1018.0
20260505005859 42 246 1.0 1.0 0.00 0.13 0.13 99 1017.9
20260505005356 42 229 0.0 0.0 0.00 0.13 0.13 99 1017.9
20260505004854 42 209 1.0 1.0 0.00 0.13 0.13 99 1018.0
20260505004349 42 209 0.0 0.0 0.00 0.13 0.13 99 1018.2
20260505003847 42 223 0.0 0.0 0.00 0.13 0.13 99 1018.3
20260505003344 42 236 0.0 0.0 0.00 0.13 0.13 99 1018.2
20260505002840 42 239 0.0 0.0 0.00 0.13 0.13 99 1018.3
20260505002337 42 249 1.0 1.0 0.00 0.13 0.13 99 1018.2
20260505001836 42 172 0.0 1.0 0.05 0.13 0.13 99 1018.9
20260505001332 41 147 2.0 2.0 0.05 0.13 0.13 99 1018.8
20260505000829 41 232 2.0 2.0 0.12 0.12 0.12 98 1018.9
20260505000327 41 229 0.0 0.0 0.19 0.12 0.12 99 1019.2
20260504235823 42 238 1.0 1.0 0.12 0.10 0.10 98 1019.4
20260504235320 42 231 1.0 1.0 0.05 0.09 0.09 98 1019.0
20260504234817 42 256 1.0 2.0 0.05 0.09 0.09 98 1018.9
20260504234315 42 234 2.0 2.0 0.00 0.08 0.08 98 1018.9
20260504233811 42 291 0.0 2.0 0.00 0.08 0.08 98 1018.3
20260504233307 42 231 1.0 1.0 0.07 0.08 0.08 98 1018.3
20260504232803 42 246 1.0 1.0 0.07 0.08 0.08 97 1018.2
20260504232303 43 245 2.0 3.0 0.00 0.07 0.07 97 1018.0
20260504231758 43 228 1.0 2.0 0.00 0.07 0.07 97 1018.0
20260504231254 43 227 0.0 1.0 0.05 0.07 0.07 96 1017.8
20260504230750 43 223 0.0 0.0 0.12 0.07 0.07 94 1017.8
20260504230248 44 214 0.0 0.0 0.12 0.06 0.06 92 1017.9
20260504225747 44 237 0.0 1.0 0.19 0.05 0.05 85 1017.7
20260504225243 44 150 2.0 3.0 0.14 0.04 0.04 84 1017.7
20260504224740 45 212 1.0 1.0 0.05 0.02 0.02 82 1017.4
20260504224238 47 207 1.0 1.0 0.12 0.02 0.02 77 1017.5
20260504223733 49 137 3.0 5.0 0.07 0.01 0.01 66 1017.4
20260504223229 50 226 1.0 1.0 0.00 0.00 0.00 58 1017.0
20260504222727 51 45 2.0 2.0 0.00 0.00 0.00 56 1017.2
20260504222223 52 41 5.0 8.0 0.00 0.00 0.00 58 1017.0
20260504221720 54 166 0.0 1.0 0.00 0.00 0.00 52 1016.9
20260504221218 55 63 4.0 5.0 0.00 0.00 0.00 46 1016.9
20260504220714 56 16 4.0 7.0 0.00 0.00 0.00 44 1017.0
20260504220212 56 156 5.0 6.0 0.00 0.00 0.00 44 1016.5
20260504215708 57 0 1.0 3.0 0.00 0.00 0.00 45 1016.3
20260504215206 57 223 1.0 1.0 0.00 0.00 0.00 44 1016.3
20260504214701 58 151 2.0 2.0 0.00 0.00 0.00 42 1016.1
20260504214158 58 302 1.0 1.0 0.00 0.00 0.00 42 1016.1
20260504213654 58 22 1.0 1.0 0.00 0.00 0.00 40 1016.5
20260504213151 58 159 2.0 2.0 0.00 0.00 0.00 39 1016.5
20260504212647 58 231 2.0 3.0 0.00 0.00 0.00 40 1016.4
20260504212144 59 271 3.0 5.0 0.00 0.00 0.00 39 1016.6
20260504211642 59 251 1.0 2.0 0.00 0.00 0.00 40 1016.6
20260504211138 58 105 2.0 3.0 0.00 0.00 0.00 41 1016.8
20260504210636 57 290 3.0 3.0 0.00 0.00 0.00 41 1016.8
20260504210132 58 132 0.0 1.0 0.00 0.00 0.00 43 1016.6
20260504205630 56 210 1.0 1.0 0.00 0.00 0.00 44 1017.0
20260504205127 57 338 3.0 5.0 0.00 0.00 0.00 42 1017.3
20260504204626 57 21 5.0 6.0 0.00 0.00 0.00 45 1016.9
20260504204124 55 308 1.0 2.0 0.00 0.00 0.00 46 1017.0
20260504203622 55 350 4.0 5.0 0.00 0.00 0.00 46 1017.3
20260504203119 55 347 6.0 8.0 0.00 0.00 0.00 47 1017.5
20260504202614 56 3 9.0 10.0 0.00 0.00 0.00 47 1017.7
20260504202111 56 306 4.0 7.0 0.00 0.00 0.00 47 1017.9
20260504201608 55 133 4.0 7.0 0.00 0.00 0.00 49 1017.8
20260504201106 55 139 2.0 5.0 0.00 0.00 0.00 51 1017.9
20260504200603 54 9 3.0 5.0 0.00 0.00 0.00 51 1017.9
20260504200059 54 68 4.0 5.0 0.00 0.00 0.00 51 1017.7
20260504195555 55 270 5.0 9.0 0.00 0.00 0.00 48 1018.0
20260504195051 54 58 6.0 8.0 0.00 0.00 0.00 48 1017.9
20260504194548 54 63 8.0 10.0 0.00 0.00 0.00 47 1018.2
20260504194043 55 354 4.0 5.0 0.00 0.00 0.00 46 1018.3
20260504193540 56 30 3.0 3.0 0.00 0.00 0.00 46 1017.9
20260504193039 55 144 3.0 3.0 0.00 0.00 0.00 45 1017.7
20260504192537 55 148 5.0 5.0 0.00 0.00 0.00 45 1017.8
20260504192035 56 71 1.0 3.0 0.00 0.00 0.00 46 1017.9
20260504191533 57 207 2.0 2.0 0.00 0.00 0.00 44 1017.9
20260504191028 56 166 2.0 2.0 0.00 0.00 0.00 46 1017.8
20260504190525 54 178 2.0 2.0 0.00 0.00 0.00 46 1018.0
20260504190021 54 115 5.0 6.0 0.00 0.00 0.00 46 1017.9
20260504185518 55 130 6.0 9.0 0.00 0.00 0.00 47 1018.3
20260504185015 56 233 4.0 5.0 0.00 0.00 0.00 45 1017.9
20260504184510 55 44 1.0 2.0 0.00 0.00 0.00 43 1018.3
20260504184006 55 272 3.0 3.0 0.00 0.00 0.00 46 1017.8
20260504183503 54 38 6.0 7.0 0.00 0.00 0.00 45 1017.8
20260504183001 55 265 6.0 7.0 0.00 0.00 0.00 45 1018.2
20260504182457 56 345 3.0 3.0 0.00 0.00 0.00 41 1017.9
20260504181955 56 335 3.0 3.0 0.00 0.00 0.00 39 1017.8
20260504181452 57 251 2.0 2.0 0.00 0.00 0.00 38 1017.7
20260504180951 57 192 3.0 3.0 0.00 0.00 0.00 38 1017.8
20260504180449 57 223 1.0 1.0 0.00 0.00 0.00 37 1017.7
20260504175947 57 54 3.0 5.0 0.00 0.00 0.00 37 1017.7
20260504175444 58 277 4.0 5.0 0.00 0.00 0.00 37 1017.3
20260504174941 58 225 0.0 0.0 0.00 0.00 0.00 37 1017.7
20260504174439 58 30 3.0 3.0 0.00 0.00 0.00 36 1017.4
20260504173936 59 176 3.0 3.0 0.00 0.00 0.00 36 1017.7
20260504173432 59 0 4.0 5.0 0.00 0.00 0.00 36 1017.4
20260504172930 60 76 3.0 7.0 0.00 0.00 0.00 36 1017.8
20260504172426 60 215 2.0 3.0 0.00 0.00 0.00 35 1017.9
20260504171922 61 244 2.0 3.0 0.00 0.00 0.00 33 1017.7
20260504171420 61 315 5.0 6.0 0.00 0.00 0.00 33 1017.9
20260504170917 61 30 0.0 1.0 0.00 0.00 0.00 33 1018.2
20260504170413 59 161 0.0 0.0 0.00 0.00 0.00 35 1017.9
20260504160332 59 308 2.0 3.0 0.00 0.00 0.00 39 1018.9
20260504150756 54 160 3.0 3.0 0.00 0.00 0.00 41 1019.3
20260504150253 53 253 4.0 7.0 0.00 0.00 0.00 41 1019.4
20260504141223 46 219 0.0 0.0 0.00 0.00 0.00 59 1019.4
20260504140720 44 210 0.0 0.0 0.00 0.00 0.00 56 1019.4
20260504140215 43 196 1.0 1.0 0.00 0.00 0.00 59 1019.4
20260504130643 39 218 0.0 0.0 0.00 0.00 0.00 59 1019.2
20260504130140 38 224 0.0 0.0 0.00 0.00 0.00 60 1019.0
20260504120104 36 214 0.0 0.0 0.00 0.00 0.00 62 1018.5
20260504110531 36 208 0.0 0.0 0.00 0.00 0.00 60 1019.0
20260504100448 37 214 0.0 0.0 0.00 0.00 0.00 59 1019.4
20260504081841 39 189 1.0 1.0 0.00 0.00 0.00 53 1019.8
20260504081337 39 204 0.0 0.0 0.00 0.00 0.00 54 1019.9
20260504080833 39 181 1.0 1.0 0.00 0.00 0.00 55 1020.1
20260504080331 39 185 1.0 1.0 0.00 0.00 0.00 55 1020.3